Flag for Finland Weather past 2 weeks in Rovaniemi, Finland

Now
54 °F

Passing clouds.


Feels Like: 50 °F
Forecast: 41 / 54 °F
Wind: 12 mph from North

Location: Rovaniemi Airport

Current Time: Aug 28, 2014 at 7:10:06 PM

Latest Report: Aug 28, 2014 at 6:20 PM


Visibility: N/A

Pressure: 29.95 "Hg

Humidity: 82%

Dew point: 48 °F

Location of RovaniemiLocation

Historic Weather in Rovaniemi — Graph

°F

Rovaniemi temperature yesterday

Maximum temperature yesterday: 55 °F (at 10:50 AM)
Minimum temperature yesterday: 54 °F (at 12:20 AM)
Average temperature yesterday: 54 °F

Past Weeks' High & Low Weather Summary

 TemperatureHumidityPressure
High68 °F (Aug 14, 1:20 PM)100% (Aug 14, 2:20 AM)29.92 "Hg (Aug 14, 2:20 AM)
Low39 °F (Aug 18, 6:20 AM)42% (Aug 18, 4:50 PM)29.39 "Hg (Aug 19, 7:20 PM)
Average53 °F86%29.62 "Hg
* Reported Aug 13 5:20 PM — Aug 28 5:50 PM, Rovaniemi, Weather by CustomWeather, © 2014

Note: Actual official high and low records may vary slightly from our data, if they occured in-between our weather recording intervals... More about our weather records

Advertising

Rovaniemi weather history for previous 24 hours

 ConditionsComfort  
Time TempWeatherWind HumidityBarometerVisibility
5:50 PM
Aug 28
54 °FBroken clouds.15 mph82%29.92 "HgN/A
5:20 PM54 °FBroken clouds.13 mph77%29.92 "HgN/A
4:50 PM54 °FBroken clouds.15 mph77%29.92 "HgN/A
4:20 PM55 °FBroken clouds.13 mph72%29.92 "HgN/A
3:50 PM55 °FBroken clouds.13 mph72%29.92 "HgN/A
3:20 PM55 °FBroken clouds.13 mph77%29.89 "HgN/A
2:50 PM54 °FBroken clouds.16 mph88%29.89 "HgN/A
2:20 PM52 °FBroken clouds.16 mph94%29.89 "HgN/A
1:50 PM52 °FSprinkles. Partly sunny.14 mph94%29.89 "HgN/A
1:20 PM52 °FSprinkles. Broken clouds.17 mph94%29.89 "HgN/A
12:50 PM54 °FBroken clouds.18 mph88%29.86 "HgN/A
12:20 PM54 °FSprinkles. Broken clouds.17 mph88%29.86 "HgN/A
11:50 AM54 °FBroken clouds.16 mph88%29.86 "HgN/A
11:20 AM54 °FBroken clouds.14 mph88%29.86 "HgN/A
10:50 AM54 °FPartly sunny.15 mph88%29.83 "HgN/A
10:20 AM54 °FPartly sunny.16 mph88%29.83 "HgN/A
9:50 AM54 °FBroken clouds.16 mph94%29.83 "HgN/A
9:20 AM54 °FBroken clouds.15 mph94%29.83 "HgN/A
8:50 AM54 °FPartly sunny.13 mph94%29.83 "HgN/A
8:20 AM54 °FBroken clouds.10 mph94%29.80 "HgN/A
7:50 AM54 °FPartly sunny.13 mph94%29.80 "HgN/A
7:20 AM54 °FPartly sunny.13 mph94%29.80 "HgN/A
6:50 AM52 °FMostly cloudy.13 mph100%29.80 "HgN/A
6:20 AM54 °FPassing clouds.13 mph88%29.80 "HgN/A
5:50 AM52 °FMostly cloudy.13 mph100%29.77 "HgN/A
5:20 AM52 °FMostly cloudy.12 mph100%29.77 "HgN/A
4:50 AM52 °FPartly cloudy.12 mph100%29.77 "HgN/A
4:20 AM52 °FOvercast.13 mph100%29.77 "HgN/A
3:50 AM52 °FPartly cloudy.12 mph100%29.77 "HgN/A
3:20 AM52 °FOvercast.12 mph100%29.74 "HgN/A
2:50 AM52 °FMostly cloudy.10 mph100%29.74 "HgN/A
2:20 AM54 °FMostly cloudy.10 mph94%29.74 "HgN/A
1:50 AM54 °FMostly cloudy.10 mph94%29.74 "HgN/A
1:20 AM54 °FPartly cloudy.12 mph94%29.74 "HgN/A
12:50 AM54 °FMostly cloudy.12 mph94%29.71 "HgN/A
12:20 AM54 °FOvercast.10 mph94%29.71 "HgN/A
11:50 PM
Aug 27
54 °FOvercast.12 mph94%29.71 "HgN/A
11:20 PM54 °FMostly cloudy.10 mph94%29.71 "HgN/A
10:50 PM54 °FPassing clouds.12 mph94%29.71 "HgN/A
10:20 PM54 °FOvercast.12 mph94%29.71 "HgN/A
9:50 PM54 °FBroken clouds.15 mph94%29.71 "HgN/A
8:50 PM54 °FScattered showers. Broken clouds.16 mph94%29.68 "HgN/A
8:20 PM54 °FSprinkles. Partly sunny.14 mph94%29.68 "HgN/A
7:20 PM54 °FScattered showers. Broken clouds.14 mph94%29.65 "HgN/A
Weather by CustomWeather, © 2014

See weather overviewHow to use our weather pages